User: anonymous   Login
Location: Unspecified
(0.0000°N, 0.0000°E)
Time: 23:44:32
(UTC+00:00)
Language:

SR - Orbit

View from above orbital plane
View from above orbital plane
View from above satellite
View from above satellite

Ground track
Ground track

The orbit data is extracted from the following two-line orbital elements,

1    46U 60007B   19322.46584796 -.00000007  00000-0  21838-4 0  9993
2    46  66.6905 259.3118 0217213 288.5457  69.2164 14.49258561108381
Epoch (UTC): 18 November 2019 11:10:49
Eccentricity: 0.0217213
inclination: 66.6905°
perigee height: 574 km
apogee height: 882 km
right ascension of ascending node: 259.3118°
argument of perigee: 288.5457°
revolutions per day: 14.49258561
mean anomaly at epoch: 69.2164°
orbit number at epoch: 10838

The dashed part of the orbit path shows where the satellite is in the earth's shadow,  

DLR